Location: Newark
(45.9456°N, 15.4064°E)
Time: 19:05:52
(UTC+00:00)

Courier 1B Rocket - Pass Details

Date: 23 January 2020
Orbit: 920 x 1202 km, 28.2° (Epoch: 16 February)

Event Time Altitude Azimuth Distance (km) Brightness Sun altitude
Rises 14:47:08 0° 244° (WSW) 3,683 9.9 8.2°
Reaches altitude 10° 14:51:38 10° 217° (SW) 2,676 9.3 7.6°
Maximum altitude 14:54:08 12° 194° (SSW) 2,474 8.1 7.3°
Drops below altitude 10° 14:56:37 10° 170° (S) 2,628 7.7 7.0°
Sets 15:00:56 0° 142° (SE) 3,547 7.9 6.4°
